Retour au catalogue

CZ-2D R/B

ActifPO
NORAD 28738·ROCKET BODY·🇨🇳 China

Lancé Jul 5, 2005 depuis Jiuquan Satellite Launch Center

Loading…

Prochains Passages (prochaines 24 heures)

TLE

FraisSource: Space-Track

Époque: Sep 14, 2026, 01:00 UTC

1 28738U 05024B   26257.04224126  .00082300  00000-0  41694-3 0  9992
2 28738  97.3410 281.6139 0003840  78.9139 281.2561 15.81295574169329

Suivez CZ-2D R/B en temps réel avec AllMySat

Download on the App Store